Regional Weather Roundup
Issued by NWS

Home | Current Version | Previous Version | Text Only | Print | Product List | Glossary On
Versions: 1 2 3 4 5 6 7 8 9 10 11 12 13 14 15 16 17 18 19 20 21 22 23 24 25 26 27 28 29 30 31 32 33 34 35 36 37 38 39 40 41 42 43 44 45 46 47 48 49 50
000
ASUS43 KTOP 290708
RWRKS

WEATHER ROUNDUP FOR KANSAS
NATIONAL WEATHER SERVICE GOODLAND KS
200 AM CDT FRI MAY 29 2015

NOTE:  "FAIR" INDICATES FEW OR NO CLOUDS BELOW 12,000 FEET WITH NO
SIGNIFICANT WEATHER AND/OR OBSTRUCTIONS TO VISIBILITY.

KSZ001>006-013>018-027>032-041>047-290800-
NORTHWEST KANSAS

CITY           SKY/WX    TMP DP  RH WIND       PRES   REMARKS
GOODLAND       CLOUDY    52  50  93 W3        30.05R
HAYS           CLOUDY    61  52  72 W10       29.93R
HILL CITY      CLOUDY    57  55  93 NW7       29.95F
RUSSELL        CLOUDY    63  57  81 NE8       29.92R
$$

KSZ061>065-074>080-084>089-290800-
SOUTHWEST KANSAS

CITY           SKY/WX    TMP DP  RH WIND       PRES   REMARKS
DODGE CITY     CLOUDY    59  55  87 E5        29.96R
ELKHART          N/A     56  54  94 N2          N/A
GARDEN CITY    MOCLDY    54  53  97 NW7       29.97R
GREAT BEND     MOCLDY    59  55  88 S9        29.92R
LIBERAL        CLOUDY    61  54  77 E12       30.00R
PRATT          MOCLDY    59  55  88 CALM      29.94F
$$

KSZ066>073-081>083-090>101-290800-
SOUTHEAST KANSAS

CITY           SKY/WX    TMP DP  RH WIND       PRES   REMARKS
CHANUTE        MOCLDY    68  66  93 SE7       29.94F
COFFEYVILLE    CLOUDY    70  67  90 S9        29.93S
HUTCHINSON     CLOUDY    62  58  86 NE6       29.91F
MEDICINE LODGE   N/A     61  57  87 CALM      29.92F
NEWTON         CLOUDY    63  59  88 CALM      29.94F
PARSONS        CLOUDY    70  68  93 CALM      29.95S
WICHITA INTL   CLOUDY    66  63  90 NE9       29.91F
WICHITA JABRA  TSTM      65  65 100 NE7       29.93R FOG
WICHITA MCCONL LGT RAIN  66  65  96 VRB3      29.92F
WINFIELD       CLOUDY    70  68  93 SE13      29.92F
$$

KSZ007>012-019>026-033>040-048>060-102>105-290800-
NORTHEAST KANSAS

CITY           SKY/WX    TMP DP  RH WIND       PRES   REMARKS
CONCORDIA      CLOUDY    61  59  93 S5        29.91R
EMPORIA        CLOUDY    67  65  93 SE7       29.92F
LAWRENCE       MOCLDY    65  63  93 CALM      29.96S
MANHATTAN      LGT RAIN  68  66  93 W6        29.93F
MARYSVILLE     CLOUDY    64  63  94 NE6       29.92F
OLATHE IND     CLOUDY    64  63  96 SE9       29.95F
OLATHE EXE     MOCLDY    63  63 100 SE7       29.94F
SALINA         CLOUDY    65  59  81 CALM      29.91F
TOPEKA BILLARD CLOUDY    66  64  93 SE7       29.95F
TOPEKA FORBES  CLOUDY    67  64  90 SE5       29.95S
$$


USA.gov is the U.S. government's official web portal to all federal, state and local government web resources and services.